Long Prairie, MN

4:02 PM CDT on September 20, 2017 (GMT -0500)
Long Prairie

Weather History for K14Y - March, 2014

Change the Weather History Date:

Saturday, March 15, 2014

  Actual Average (KLXL) Record (KLXL)
Temperature  
Mean Temperature 20 °F -  
Max Temperature 28 °F 39 °F 69 °F (2015)
Min Temperature 12 °F 16 °F -14 °F (1956)
Degree Days  
Heating Degree Days 45    
Moisture  
Dew Point 9 °F    
Average Humidity 66    
Maximum Humidity 93    
Minimum Humidity 37    
Precipitation  
Precipitation 0.00 in - - ()
Sea Level Pressure  
Sea Level Pressure 30.17 in    
Wind  
Wind Speed 6 mph (NNW)    
Max Wind Speed 12 mph    
Max Gust Speed 16 mph    
Visibility 10 miles    
Events      
Averages and records for this station are not official NWS values.
T = Trace of Precipitation, MM = Missing Value Source: NWS Daily Summary

Daily Weather History Graph

Daily Weather History Graph

Search for Another Location

Airport or City:

Trip Planner

Search our weather history database for the weather conditions in past years. The results will help you decide how hot, cold, wet, or windy it might be!

Date:

Astronomy

Mar. 15, 2014 Rise Set
Actual Time 7:32 AM CDT 7:25 PM CDT
Civil Twilight 7:02 AM CDT 7:55 PM CDT
Nautical Twilight 6:27 AM CDT 8:29 PM CDT
Astronomical Twilight 5:52 AM CDT 9:05 PM CDT
Moon 6:45 PM CDT (3/15) 6:46 AM CDT (3/15)
Length of Visible Light 12h 52m
Length of Day
11h 53m
Waxing Gibbous, 99% of the Moon is Illuminated
Mar 15
Waxing Gibbous
Mar 16
Full
Mar 23
Last Quarter
Mar 30
New
Apr 7
First Quarter

Hourly Weather History & Observations

Time (CDT) Temp. Windchill Dew Point Humidity Pressure Visibility Wind Dir Wind Speed Gust Speed Precip Events Conditions
12:10 AM 19.4 °F 11.5 °F 12.2 °F 74% 29.96 in 10.0 mi NW 5.8 mph - N/A   Clear
12:30 AM 19.4 °F 11.5 °F 12.2 °F 74% 29.97 in 10.0 mi NW 5.8 mph - N/A   Clear
12:50 AM 19.4 °F 11.5 °F 12.2 °F 74% 29.97 in 10.0 mi NW 5.8 mph - N/A   Clear
1:10 AM 19.4 °F 11.5 °F 12.2 °F 74% 29.97 in 10.0 mi NNW 5.8 mph - N/A   Clear
1:30 AM 17.6 °F 10.7 °F 12.2 °F 79% 29.97 in 10.0 mi NNW 4.6 mph - N/A   Clear
1:50 AM 17.6 °F 10.7 °F 12.2 °F 79% 29.98 in 10.0 mi NW 4.6 mph - N/A   Clear
2:10 AM 17.6 °F 12.3 °F 12.2 °F 79% 29.99 in 10.0 mi NNW 3.5 mph - N/A   Clear
2:30 AM 17.6 °F 10.7 °F 12.2 °F 79% 29.99 in 10.0 mi NNW 4.6 mph - N/A   Clear
2:50 AM 17.6 °F 10.7 °F 12.2 °F 79% 29.99 in 10.0 mi NNW 4.6 mph - N/A   Clear
3:10 AM 17.6 °F 9.3 °F 12.2 °F 79% 30.00 in 10.0 mi NNW 5.8 mph - N/A   Clear
3:30 AM 15.8 °F 8.6 °F 12.2 °F 86% 30.00 in 10.0 mi NNW 4.6 mph - N/A   Clear
3:50 AM 15.8 °F 8.6 °F 12.2 °F 86% 30.00 in 10.0 mi NNW 4.6 mph - N/A   Clear
4:10 AM 15.8 °F - 12.2 °F 86% 30.00 in 10.0 mi Calm Calm - N/A   Clear
4:30 AM 14.0 °F - 12.2 °F 93% 30.01 in 10.0 mi Calm Calm - N/A   Clear
4:50 AM 14.0 °F - 12.2 °F 93% 30.02 in 10.0 mi Calm Calm - N/A   Clear
5:10 AM 14.0 °F - 10.4 °F 86% 30.02 in 10.0 mi Calm Calm - N/A   Clear
5:30 AM 14.0 °F - 10.4 °F 86% 30.02 in 10.0 mi Calm Calm - N/A   Clear
5:50 AM 14.0 °F - 10.4 °F 86% 30.03 in 10.0 mi Calm Calm - N/A   Scattered Clouds
6:10 AM 14.0 °F - 10.4 °F 86% 30.04 in 10.0 mi Calm Calm - N/A   Mostly Cloudy
6:30 AM 14.0 °F 5.1 °F 10.4 °F 86% 30.05 in 10.0 mi NNW 5.8 mph - N/A   Scattered Clouds
6:50 AM 14.0 °F 6.5 °F 10.4 °F 86% 30.05 in 10.0 mi NNW 4.6 mph - N/A   Clear
7:10 AM 14.0 °F 2.9 °F 10.4 °F 86% 30.05 in 10.0 mi NNW 8.1 mph - N/A   Clear
7:30 AM 14.0 °F 2.9 °F 10.4 °F 86% 30.05 in 10.0 mi North 8.1 mph - N/A   Clear
7:50 AM 12.2 °F 1.7 °F 10.4 °F 92% 30.07 in 10.0 mi North 6.9 mph - N/A   Clear
8:10 AM 12.2 °F 1.7 °F 10.4 °F 92% 30.07 in 10.0 mi North 6.9 mph - N/A   Clear
8:30 AM 14.0 °F 3.9 °F 10.4 °F 86% 30.08 in 10.0 mi North 6.9 mph - N/A   Clear
8:50 AM 14.0 °F 3.9 °F 10.4 °F 86% 30.09 in 10.0 mi North 6.9 mph - N/A   Clear
9:10 AM 14.0 °F - 10.4 °F 86% 30.10 in 10.0 mi Calm Calm - N/A   Clear
9:30 AM 14.0 °F 2.9 °F 10.4 °F 86% 30.12 in 10.0 mi North 8.1 mph - N/A   Clear
9:50 AM 17.6 °F 9.3 °F 10.4 °F 73% 30.13 in 10.0 mi North 5.8 mph - N/A   Clear
10:11 AM 17.6 °F 10.7 °F 10.4 °F 73% 30.14 in 10.0 mi North 4.6 mph - N/A   Clear
10:30 AM 17.6 °F 9.3 °F 12.2 °F 79% 30.14 in 10.0 mi North 5.8 mph - N/A   Clear
10:50 AM 19.4 °F 14.3 °F 10.4 °F 68% 30.15 in 10.0 mi North 3.5 mph - N/A   Clear
11:10 AM 19.4 °F 9.5 °F 12.2 °F 74% 30.16 in 10.0 mi North 8.1 mph - N/A   Clear
11:30 AM 21.2 °F - 12.2 °F 68% 30.16 in 10.0 mi Calm Calm - N/A   Clear
11:50 AM 23.0 °F - 12.2 °F 63% 30.17 in 10.0 mi Calm Calm - N/A   Clear
12:10 PM 23.0 °F 13.9 °F 12.2 °F 63% 30.18 in 10.0 mi North 8.1 mph - N/A   Clear
12:30 PM 24.8 °F 16.1 °F 12.2 °F 59% 30.18 in 10.0 mi North 8.1 mph 16.1 mph N/A   Clear
12:50 PM 24.8 °F 20.5 °F 12.2 °F 59% 30.20 in 10.0 mi NNW 3.5 mph - N/A   Clear
1:10 PM 24.8 °F 16.9 °F 12.2 °F 59% 30.20 in 10.0 mi North 6.9 mph - N/A   Clear
1:30 PM 24.8 °F 16.1 °F 10.4 °F 54% 30.21 in 10.0 mi North 8.1 mph - N/A   Clear
1:50 PM 24.8 °F 15.3 °F 10.4 °F 54% 30.22 in 10.0 mi North 9.2 mph - N/A   Clear
2:11 PM 26.6 °F 19.1 °F 10.4 °F 51% 30.22 in 10.0 mi NNW 6.9 mph - N/A   Clear
2:30 PM 26.6 °F 19.1 °F 10.4 °F 51% 30.22 in 10.0 mi North 6.9 mph - N/A   Clear
2:50 PM 26.6 °F 18.2 °F 10.4 °F 51% 30.22 in 10.0 mi North 8.1 mph - N/A   Clear
3:10 PM 26.6 °F 16.8 °F 10.4 °F 51% 30.23 in 10.0 mi NNW 10.4 mph - N/A   Clear
3:30 PM 26.6 °F 17.5 °F 10.4 °F 51% 30.23 in 10.0 mi NNW 9.2 mph - N/A   Clear
3:51 PM 28.4 °F 19.1 °F 8.6 °F 43% 30.24 in 10.0 mi North 10.4 mph - N/A   Clear
4:10 PM 26.6 °F 16.8 °F 8.6 °F 47% 30.24 in 10.0 mi NNW 10.4 mph - N/A   Clear
4:30 PM 28.4 °F 19.1 °F 8.6 °F 43% 30.25 in 10.0 mi North 10.4 mph - N/A   Clear
4:50 PM 28.4 °F 19.7 °F 10.4 °F 47% 30.26 in 10.0 mi North 9.2 mph - N/A   Clear
5:11 PM 26.6 °F 16.8 °F 8.6 °F 47% 30.27 in 10.0 mi North 10.4 mph 16.1 mph N/A   Clear
5:31 PM 26.6 °F 16.8 °F 5.0 °F 40% 30.28 in 10.0 mi NNW 10.4 mph 16.1 mph N/A   Clear
5:50 PM 26.6 °F 16.2 °F 5.0 °F 40% 30.28 in 10.0 mi North 11.5 mph - N/A   Clear
6:10 PM 26.6 °F 16.2 °F 5.0 °F 40% 30.29 in 10.0 mi North 11.5 mph - N/A   Clear
6:30 PM 26.6 °F 17.5 °F 3.2 °F 37% 30.30 in 10.0 mi North 9.2 mph 16.1 mph N/A   Clear
6:50 PM 24.8 °F 14.0 °F 3.2 °F 40% 30.31 in 10.0 mi North 11.5 mph - N/A   Clear
7:11 PM 24.8 °F 14.0 °F 5.0 °F 43% 30.32 in 10.0 mi North 11.5 mph - N/A   Clear
7:30 PM 23.0 °F 13.1 °F 5.0 °F 46% 30.32 in 10.0 mi North 9.2 mph - N/A   Clear
7:50 PM 23.0 °F 14.7 °F 6.8 °F 50% 30.34 in 10.0 mi North 6.9 mph - N/A   Clear
8:11 PM 21.2 °F 12.6 °F 6.8 °F 54% 30.34 in 10.0 mi North 6.9 mph - N/A   Clear
8:31 PM 21.2 °F 13.6 °F 6.8 °F 54% 30.36 in 10.0 mi North 5.8 mph - N/A   Clear
8:50 PM 21.2 °F 14.9 °F 8.6 °F 58% 30.37 in 10.0 mi North 4.6 mph - N/A   Clear
9:10 PM 21.2 °F 13.6 °F 6.8 °F 54% 30.38 in 10.0 mi North 5.8 mph - N/A   Clear
9:31 PM 19.4 °F 10.4 °F 5.0 °F 54% 30.38 in 10.0 mi North 6.9 mph - N/A   Clear
9:50 PM 19.4 °F 10.4 °F 5.0 °F 54% 30.39 in 10.0 mi North 6.9 mph - N/A   Clear
10:10 PM 19.4 °F 11.5 °F 5.0 °F 54% 30.40 in 10.0 mi North 5.8 mph - N/A   Clear
10:30 PM 17.6 °F 9.3 °F 5.0 °F 58% 30.41 in 10.0 mi North 5.8 mph - N/A   Clear
10:51 PM 17.6 °F 9.3 °F 5.0 °F 58% 30.41 in 10.0 mi North 5.8 mph - N/A   Clear
11:10 PM 17.6 °F 9.3 °F 3.2 °F 53% 30.41 in 10.0 mi North 5.8 mph - N/A   Clear
11:30 PM 15.8 °F 10.2 °F 5.0 °F 62% 30.42 in 10.0 mi NNW 3.5 mph - N/A   Clear
11:50 PM 15.8 °F 8.6 °F 5.0 °F 62% 30.42 in 10.0 mi NNW 4.6 mph - N/A   Clear